Wind_Speed
9 9 9 8 4 3 3 2 4 13 9 8 5 2 2 5 5 2 5 6 8 17 19 16 16 17 16 15 12 10 7 6 5 5 5 5 7 9 8 7 8 9 10 10 10 10 9 8 7
9 11 9 8 5 3 1 3 11 13 12 1 0 4 5 6 6 1 2 5 10 15 19 18 17 17 17 17 15 12 10 8 7 6 6 5 7 11 12 9 9 9 11 12 12 12 11 11 10
11 12 10 5 7 7 3 1 13 6 5 5 7 3 5 3 4 2 3 5 7 10 14 18 17 16 19 20 18 14 12 9 9 8 6 5 7 10 13 12 10 10 11 13 14 14 14 14 13
11 12 11 12 9 4 3 7 13 10 3 9 5 5 6 7 8 4 2 3 6 6 8 14 17 18 20 22 21 17 14 11 10 9 7 5 6 10 12 12 11 10 11 11 13 14 15 16 15
11 12 14 13 9 7 1 7 12 15 6 9 7 6 9 11 11 8 6 3 2 3 8 10 16 20 21 24 23 19 16 13 12 11 9 7 7 9 10 11 11 10 9 10 11 12 14 16 16
14 14 13 18 16 11 4 5 12 14 13 5 8 9 10 10 10 10 10 7 5 4 5 9 13 16 20 23 23 21 17 14 13 13 12 10 8 9 10 11 10 10 7 8 11 11 12 14 15
13 17 19 20 18 10 6 1 8 9 13 4 5 6 8 8 9 10 10 6 7 8 6 9 11 14 17 19 22 21 18 15 15 15 14 12 10 9 10 11 10 10 8 6 10 10 10 11 12
15 17 21 21 18 15 11 4 3 2 7 7 8 7 10 10 10 13 12 9 8 8 8 8 8 13 13 16 19 20 19 17 16 16 16 14 11 9 10 10 11 10 10 6 8 9 9 9 10
17 19 23 21 17 13 9 13 8 6 4 4 11 12 13 13 14 15 14 13 9 6 8 11 12 12 16 16 19 21 21 19 18 18 18 15 14 10 9 9 10 10 10 9 9 9 8 9 10
19 24 21 18 15 17 15 18 16 15 11 7 9 11 15 16 15 14 14 14 10 8 6 8 12 12 14 17 19 22 22 21 20 20 20 18 17 14 10 9 9 9 8 9 9 10 8 8 10
22 26 21 22 22 22 21 23 21 20 15 12 12 13 17 18 19 20 16 13 12 12 12 12 11 12 14 16 19 23 23 23 22 22 22 21 20 17 14 13 11 9 7 8 10 11 10 8 9
24 24 24 23 23 25 24 26 26 23 19 13 11 16 19 21 22 22 19 12 12 13 13 12 13 13 14 15 19 21 25 25 24 23 24 23 22 20 18 17 14 11 10 8 7 10 12 10 9
23 21 21 22 25 24 25 25 25 28 25 21 19 20 22 24 24 23 24 20 18 16 15 17 14 15 14 18 18 21 24 26 26 27 26 26 25 24 22 21 19 16 13 12 10 8 10 11 10
23 23 23 24 22 24 24 22 24 25 27 27 27 29 29 29 27 25 21 20 21 19 20 17 18 16 19 17 19 20 23 26 28 28 28 28 28 27 26 25 23 21 18 17 16 12 11 11 11
24 28 25 22 18 18 19 22 18 17 18 23 26 27 30 28 27 27 22 19 18 16 16 16 17 19 18 21 20 20 20 24 27 28 29 30 30 30 29 29 28 26 24 22 21 17 14 14 14
26 27 28 18 15 15 16 24 20 14 15 16 14 15 17 16 18 17 18 18 17 18 21 21 20 20 21 21 19 18 21 20 22 27 29 30 32 33 33 32 32 31 28 27 26 24 20 19 19
24 24 25 21 15 12 12 17 15 15 19 19 14 12 14 18 17 18 19 19 17 15 19 22 23 22 22 19 18 20 21 21 23 23 25 29 32 34 35 35 35 34 33 31 30 29 27 25 24
15 18 21 22 14 13 16 23 22 20 21 22 18 18 18 18 20 25 21 20 18 15 14 17 19 22 22 22 21 20 20 21 25 25 26 25 28 31 35 37 38 38 37 36 34 34 32 30 29
22 24 26 26 26 28 27 28 25 26 26 24 24 26 27 26 24 25 28 28 27 25 22 23 24 26 26 26 26 28 27 28 24 23 24 25 27 29 30 36 38 40 40 39 39 38 36 35 33
25 27 32 32 27 21 29 32 28 27 30 32 32 31 31 31 30 30 29 28 27 29 29 30 29 30 32 32 34 36 34 34 33 31 30 31 31 30 28 29 36 39 41 43 44 43 41 39 38
29 31 32 29 32 33 29 36 26 25 27 27 27 26 24 25 26 27 27 28 27 26 27 30 33 35 38 38 40 42 42 40 40 38 38 38 37 34 32 29 33 36 40 43 45 46 46 43 42
35 33 31 32 24 19 15 10 20 17 17 18 20 27 29 28 28 31 30 28 29 30 31 31 30 32 32 32 35 41 44 46 44 43 44 43 43 38 37 34 35 36 38 43 46 48 49 49 47
36 28 29 24 25 24 30 15 16 24 31 32 34 27 21 20 22 24 27 30 33 33 30 29 27 28 33 34 33 37 36 36 38 39 43 44 46 46 44 43 43 46 45 42 47 52 53 52 50
19 10 13 16 17 10 26 22 26 27 32 29 27 23 25 28 28 27 25 24 25 25 27 28 30 32 33 34 34 35 36 36 38 37 36 40 45 47 48 49 50 50 48 46 47 52 55 54 52
19 12 2 3 4 6 8 22 22 13 21 25 25 28 28 31 35 31 27 28 31 33 33 36 39 44 46 45 43 42 43 43 43 42 43 40 42 47 51 52 53 54 56 52 52 49 53 52 52
31 26 11 6 4 2 11 11 14 16 25 28 28 26 25 27 28 32 32 33 34 36 41 46 51 53 51 47 46 45 43 43 43 44 45 48 46 45 46 49 56 57 60 65 47 47 49 46 48
35 35 33 25 7 5 12 17 17 16 18 21 21 21 21 24 27 31 35 39 42 43 49 58 58 48 43 41 38 39 41 42 40 39 40 44 41 41 44 48 60 58 51 46 40 44 43 49 48
41 32 18 18 6 9 7 14 18 22 24 24 22 22 25 28 30 34 37 41 45 51 60 56 54 52 47 41 41 46 48 45 41 40 42 40 45 41 37 43 45 45 41 32 39 40 41 42 49
29 29 20 17 13 5 2 12 13 20 26 26 24 24 30 34 39 45 49 54 60 60 53 48 48 46 46 46 44 42 46 48 46 41 41 42 42 45 50 36 28 30 28 34 34 37 39 37 34
25 21 31 21 7 7 4 20 12 7 14 17 23 33 40 45 51 57 58 52 51 49 46 42 39 37 35 35 34 37 37 42 45 42 41 39 39 44 45 34 33 27 33 32 36 34 34 28 25
Wind_Direction
265 265 259 266 261 244 286 85 38 16 16 351 315 264 132 160 182 242 298 240 245 207 213 209 207 212 215 219 219 218 223 233 249 273 298 326 341 340 324 302 286 273 259 247 243 244 248 251 251
252 255 256 259 255 245 130 118 7 360 3 162 114 105 154 168 175 262 242 272 227 214 217 218 216 216 223 224 224 222 230 238 250 261 283 315 338 338 328 311 292 281 271 261 253 250 251 252 252
240 241 252 252 239 234 214 12 333 352 354 236 224 272 286 274 297 248 222 197 226 245 221 215 222 226 230 233 229 226 232 239 249 253 270 302 328 329 322 316 303 289 277 269 264 258 258 260 259
234 233 244 244 240 249 298 350 329 329 215 229 235 255 253 278 293 273 205 214 243 261 257 225 222 227 234 237 232 225 231 238 244 247 257 281 312 317 316 313 306 293 285 277 270 264 260 263 266
234 234 241 256 255 270 20 14 31 17 220 211 222 246 278 317 317 333 328 341 333 266 240 242 239 232 233 235 232 228 231 236 242 241 248 262 287 305 306 302 297 288 283 284 275 266 261 265 264
232 230 244 257 265 268 139 58 47 53 36 232 256 266 277 308 313 321 314 316 317 337 290 246 239 240 238 230 229 229 231 235 240 238 243 254 271 298 303 295 290 284 278 285 279 272 269 268 265
242 240 245 256 265 253 183 122 50 55 30 342 309 284 287 298 300 301 297 289 304 311 299 303 259 249 249 238 227 229 231 234 240 238 240 248 263 290 305 299 293 289 283 283 281 278 282 281 277
242 243 255 260 267 259 209 203 60 358 38 5 308 304 301 296 296 300 297 293 288 286 299 295 286 255 256 247 237 231 231 234 240 241 243 247 257 281 303 300 296 297 293 287 281 284 285 287 285
238 243 253 260 271 269 228 227 213 261 290 263 312 293 284 284 280 293 294 291 300 315 295 284 282 275 262 256 245 237 232 233 238 238 240 242 249 260 285 290 292 300 300 299 286 282 287 288 285
238 250 262 272 278 281 257 261 250 261 263 283 295 293 289 283 287 287 289 295 303 296 320 312 284 282 272 264 259 248 239 237 239 238 238 237 242 248 262 267 276 290 299 296 289 288 290 289 288
243 252 265 269 274 274 264 267 267 287 282 300 282 294 289 292 296 292 288 290 287 290 295 316 304 277 273 278 271 257 245 241 239 238 237 237 240 242 248 256 261 269 280 295 298 297 292 284 287
255 259 264 271 270 270 274 275 274 274 282 294 288 286 289 291 290 292 293 283 274 278 286 298 314 305 277 270 275 266 252 247 245 242 241 239 242 243 244 248 252 258 266 267 280 297 297 290 283
259 269 268 272 273 273 276 275 280 274 274 275 281 279 281 285 290 296 286 276 276 284 295 300 305 304 305 278 273 263 251 248 246 244 241 240 241 241 244 245 248 250 254 257 254 259 279 286 284
271 270 270 271 275 279 277 276 276 285 283 275 278 279 281 284 286 281 284 286 276 278 290 285 290 295 310 314 280 271 261 253 249 248 245 242 240 240 241 244 247 249 246 250 253 245 248 261 266
269 275 272 277 288 286 280 274 273 282 282 279 280 288 288 287 280 275 275 283 280 274 281 283 282 293 308 305 302 278 269 267 264 260 253 248 246 244 241 242 243 244 243 243 248 252 248 249 254
273 274 280 288 299 289 277 272 269 265 261 257 260 289 285 281 284 284 270 272 268 271 278 281 282 292 294 298 287 274 264 266 266 264 263 261 253 249 247 245 244 243 243 242 244 245 241 242 246
266 269 278 288 288 276 262 271 260 252 256 255 250 277 282 259 261 262 261 253 265 275 266 260 263 268 274 279 280 274 277 275 270 266 264 261 263 258 252 249 247 245 244 243 243 244 242 240 241
267 271 274 278 278 272 273 270 263 258 261 261 260 264 270 270 261 259 259 259 260 258 261 255 258 258 262 267 269 269 278 286 277 273 271 270 269 268 261 254 252 250 246 245 245 246 248 245 243
271 270 273 275 285 289 283 280 276 264 270 274 261 257 258 264 268 269 265 262 265 265 262 265 265 269 268 269 268 267 269 269 270 271 272 271 268 272 271 261 256 255 253 251 248 247 246 246 247
263 268 271 284 292 293 292 285 278 273 274 270 269 268 265 262 264 267 269 265 264 266 265 262 259 261 267 267 267 267 266 267 267 263 265 267 269 270 270 264 257 255 254 252 252 251 249 248 247
259 262 272 284 294 292 298 291 293 283 275 270 264 265 265 263 265 267 267 265 264 263 264 264 265 261 260 262 264 266 268 267 267 266 264 259 259 264 271 271 264 256 252 252 252 252 252 251 249
264 268 275 280 281 287 292 291 281 264 241 236 257 271 267 264 264 265 267 270 269 268 268 267 265 266 268 266 266 265 266 268 268 268 263 267 267 266 268 267 265 259 255 252 250 248 249 248 247
266 273 278 277 266 266 264 269 264 237 238 249 267 256 250 256 261 264 267 271 273 272 273 275 279 279 274 272 271 270 267 267 267 265 263 262 263 263 267 266 268 267 261 252 250 247 245 245 244
271 248 248 250 242 251 241 221 267 250 253 244 231 243 265 270 271 272 270 271 273 280 286 290 298 300 302 300 296 287 281 274 273 270 266 260 258 261 264 265 267 266 258 256 252 250 246 243 244
225 206 209 233 198 243 187 213 228 240 229 230 244 255 255 261 267 275 278 280 283 285 289 296 298 301 302 300 299 297 292 286 280 276 270 260 256 258 261 264 265 263 260 242 240 243 244 240 244
223 215 197 208 208 269 191 232 243 232 228 232 239 241 242 246 253 265 278 286 292 294 297 298 298 297 296 295 293 291 286 282 280 277 272 270 262 258 260 263 268 271 254 246 247 250 244 241 240
223 225 237 246 288 278 244 257 263 232 221 219 223 232 241 250 260 269 278 283 282 286 294 298 300 298 290 285 282 280 282 278 276 273 274 267 261 263 263 272 259 253 257 257 255 254 247 235 237
221 228 209 206 234 238 241 251 249 214 223 225 232 245 258 265 270 276 280 285 288 291 296 298 296 297 295 292 288 280 283 283 279 279 273 270 273 260 263 281 273 256 256 254 254 251 244 242 240
202 209 204 210 218 186 262 254 250 231 222 232 248 264 272 280 284 285 285 287 290 292 295 296 292 294 293 292 291 288 285 284 280 275 275 274 268 269 266 270 247 253 254 249 260 257 253 254 252
209 209 210 208 196 216 212 256 239 237 230 250 263 272 278 281 285 288 292 295 299 299 299 294 288 279 285 284 288 290 288 276 272 272 272 276 262 257 267 252 250 258 262 256 257 255 255 263 255
Height
3134 3134 3134 3135 3140 3135 3135 3138 3138 3138 3139 3138 3138 3138 3142 3142 3144 3147 3144 3144 3146 3148 3150 3150 3151 3152 3153 3154 3155 3156 3158 3159 3161 3162 3162 3162 3163 3163 3162 3161 3161 3162 3162 3162 3162 3161 3162 3163 3164
3133 3134 3134 3133 3136 3134 3135 3136 3137 3137 3136 3136 3137 3139 3141 3142 3143 3143 3144 3144 3145 3147 3148 3149 3150 3152 3153 3155 3156 3156 3157 3158 3160 3161 3162 3163 3163 3162 3161 3161 3161 3161 3161 3161 3161 3161 3162 3163 3163
3132 3132 3134 3132 3133 3134 3134 3135 3136 3135 3135 3135 3137 3138 3140 3141 3142 3143 3143 3144 3145 3146 3147 3148 3149 3151 3153 3154 3155 3156 3157 3158 3159 3160 3162 3162 3163 3162 3161 3160 3159 3159 3159 3159 3160 3160 3161 3161 3162
3130 3132 3133 3129 3132 3134 3135 3135 3134 3134 3135 3135 3136 3138 3140 3141 3141 3142 3143 3145 3145 3145 3146 3147 3148 3149 3151 3153 3154 3154 3156 3157 3158 3159 3161 3162 3162 3161 3160 3159 3159 3158 3158 3158 3159 3159 3159 3159 3160
3128 3129 3129 3126 3128 3132 3134 3134 3133 3132 3133 3135 3136 3137 3139 3140 3141 3141 3141 3142 3143 3144 3144 3145 3146 3147 3149 3151 3152 3153 3155 3156 3157 3159 3160 3161 3161 3161 3160 3159 3158 3157 3156 3157 3157 3158 3158 3157 3158
3126 3127 3127 3124 3128 3131 3133 3133 3132 3131 3133 3136 3136 3137 3139 3140 3140 3140 3140 3141 3141 3141 3142 3143 3144 3145 3146 3148 3150 3152 3153 3155 3156 3157 3158 3159 3160 3159 3159 3158 3157 3156 3155 3155 3156 3156 3155 3155 3156
3124 3125 3124 3124 3126 3129 3132 3131 3130 3131 3132 3134 3136 3137 3139 3139 3139 3139 3139 3139 3140 3140 3141 3142 3143 3143 3144 3145 3147 3150 3152 3153 3154 3156 3157 3158 3159 3159 3158 3157 3156 3156 3155 3153 3155 3154 3154 3154 3155
3122 3123 3122 3122 3125 3126 3129 3129 3129 3129 3129 3132 3134 3135 3136 3137 3137 3137 3137 3137 3137 3137 3138 3139 3140 3141 3143 3144 3145 3147 3149 3151 3153 3154 3155 3156 3157 3157 3157 3157 3156 3155 3155 3152 3153 3153 3153 3154 3154
3119 3120 3117 3120 3123 3124 3126 3125 3127 3128 3129 3129 3132 3133 3134 3134 3135 3135 3136 3136 3136 3136 3137 3138 3138 3139 3140 3141 3143 3144 3146 3148 3150 3151 3153 3154 3155 3155 3155 3155 3155 3155 3154 3153 3152 3152 3152 3152 3153
3116 3115 3116 3119 3121 3121 3122 3122 3123 3125 3126 3128 3128 3129 3131 3131 3131 3133 3133 3133 3134 3135 3134 3135 3136 3137 3138 3139 3140 3142 3143 3145 3147 3148 3150 3151 3152 3152 3153 3153 3152 3153 3152 3152 3151 3151 3150 3151 3152
3112 3111 3115 3116 3118 3118 3117 3118 3120 3121 3124 3126 3125 3126 3127 3128 3129 3129 3130 3130 3130 3131 3132 3132 3133 3134 3135 3136 3137 3138 3140 3142 3143 3145 3146 3148 3149 3149 3150 3150 3150 3150 3150 3150 3150 3150 3150 3149 3149
3109 3110 3111 3112 3115 3114 3115 3115 3116 3118 3121 3123 3123 3123 3123 3125 3126 3126 3126 3126 3127 3128 3128 3129 3130 3130 3131 3132 3133 3135 3137 3139 3141 3142 3143 3144 3145 3146 3147 3148 3148 3148 3147 3147 3147 3148 3148 3148 3147
3105 3107 3107 3109 3109 3111 3112 3112 3112 3112 3116 3118 3118 3118 3118 3119 3121 3122 3122 3123 3124 3125 3126 3126 3126 3126 3127 3128 3129 3129 3131 3134 3136 3137 3138 3140 3141 3142 3143 3144 3145 3145 3146 3145 3144 3144 3146 3146 3146
3102 3102 3102 3103 3105 3106 3107 3108 3108 3110 3110 3111 3112 3111 3111 3112 3115 3115 3117 3117 3118 3120 3121 3121 3122 3124 3124 3125 3125 3126 3127 3129 3130 3132 3133 3135 3136 3137 3138 3140 3141 3142 3142 3142 3142 3141 3141 3141 3142
3098 3097 3097 3099 3101 3102 3102 3103 3104 3104 3103 3105 3106 3106 3106 3106 3106 3107 3110 3112 3113 3115 3116 3118 3119 3120 3121 3121 3122 3122 3123 3125 3127 3128 3129 3130 3132 3133 3133 3134 3135 3136 3136 3137 3138 3139 3138 3138 3139
3094 3094 3092 3095 3097 3098 3097 3096 3100 3100 3099 3100 3102 3102 3103 3104 3102 3102 3104 3106 3107 3109 3111 3114 3115 3116 3116 3117 3118 3117 3118 3120 3121 3123 3124 3126 3126 3127 3127 3128 3129 3130 3131 3132 3133 3134 3134 3134 3134
3090 3089 3090 3091 3093 3093 3093 3092 3094 3095 3094 3095 3098 3097 3095 3096 3097 3095 3096 3098 3101 3102 3103 3105 3107 3109 3110 3112 3113 3114 3115 3115 3115 3117 3118 3120 3121 3121 3122 3123 3123 3124 3125 3126 3127 3128 3128 3128 3128
3087 3087 3086 3086 3089 3090 3089 3088 3088 3090 3090 3091 3092 3091 3091 3091 3091 3092 3093 3094 3096 3097 3098 3100 3101 3102 3104 3105 3106 3107 3108 3110 3110 3111 3112 3113 3114 3114 3115 3116 3117 3118 3119 3120 3120 3122 3124 3124 3123
3084 3084 3082 3083 3085 3083 3084 3083 3084 3083 3084 3084 3085 3085 3086 3086 3087 3087 3088 3089 3090 3092 3093 3094 3096 3097 3098 3100 3100 3099 3100 3102 3103 3104 3106 3107 3107 3108 3108 3109 3109 3111 3112 3114 3113 3114 3116 3116 3118
3079 3079 3077 3077 3079 3078 3076 3074 3077 3078 3076 3076 3077 3078 3080 3082 3083 3084 3084 3085 3085 3085 3086 3087 3088 3089 3091 3091 3092 3091 3092 3094 3095 3096 3098 3099 3099 3099 3100 3100 3101 3102 3103 3104 3105 3106 3107 3109 3110
3073 3074 3076 3077 3074 3070 3070 3064 3066 3067 3068 3069 3069 3070 3072 3075 3076 3077 3077 3077 3076 3076 3077 3078 3079 3079 3080 3082 3081 3081 3083 3084 3086 3088 3089 3089 3090 3092 3092 3092 3093 3094 3094 3094 3096 3096 3097 3099 3100
3065 3070 3074 3074 3075 3069 3069 3062 3060 3062 3061 3062 3064 3066 3067 3068 3070 3069 3068 3069 3069 3068 3069 3069 3068 3069 3070 3071 3070 3071 3072 3073 3076 3077 3078 3081 3082 3083 3083 3084 3085 3085 3086 3086 3087 3087 3087 3087 3089
3061 3065 3067 3069 3068 3067 3065 3070 3050 3054 3054 3058 3059 3060 3060 3061 3061 3063 3064 3063 3062 3061 3060 3060 3061 3061 3061 3061 3063 3060 3060 3061 3061 3064 3066 3070 3071 3072 3073 3074 3075 3074 3075 3076 3075 3075 3075 3075 3077
3060 3060 3062 3062 3064 3060 3056 3063 3038 3046 3047 3050 3053 3053 3054 3055 3054 3054 3054 3055 3054 3053 3052 3051 3051 3051 3051 3051 3051 3050 3051 3050 3052 3052 3052 3055 3057 3059 3060 3062 3063 3063 3064 3064 3065 3064 3063 3063 3065
3055 3057 3059 3061 3061 3050 3047 3051 3038 3041 3043 3045 3046 3048 3050 3050 3049 3047 3045 3045 3045 3045 3043 3042 3041 3041 3040 3040 3041 3040 3038 3038 3039 3040 3041 3040 3042 3043 3045 3047 3048 3049 3048 3044 3044 3048 3053 3050 3055
3045 3050 3050 3052 3052 3046 3045 3038 3034 3035 3037 3038 3040 3041 3043 3042 3041 3040 3037 3036 3035 3035 3033 3033 3033 3032 3031 3029 3029 3029 3027 3027 3027 3027 3029 3029 3029 3030 3033 3034 3034 3035 3032 3031 3023 3027 3034 3040 3044
3036 3038 3045 3045 3045 3046 3038 3031 3029 3029 3030 3031 3033 3034 3035 3035 3032 3031 3031 3031 3030 3028 3027 3024 3023 3021 3021 3019 3016 3018 3018 3016 3016 3015 3015 3015 3016 3017 3020 3021 3018 3017 3020 3014 3015 3022 3022 3027 3030
3027 3033 3036 3038 3042 3039 3026 3024 3021 3022 3024 3026 3028 3029 3029 3027 3025 3024 3024 3024 3023 3019 3017 3014 3011 3006 3006 3003 3004 3002 3001 3001 3001 3002 3003 3003 3004 3003 3004 3006 3007 3010 3011 3009 3012 3016 3015 3015 3019
3022 3021 3024 3027 3027 3024 3025 3014 3012 3018 3019 3022 3024 3024 3022 3020 3018 3018 3016 3013 3010 3007 3006 3002 3000 2995 2994 2992 2991 2991 2990 2986 2985 2985 2987 2990 2992 2992 2993 2994 2995 3001 3001 3003 3004 3007 3010 3009 3010
3015 3016 3017 3016 3022 3021 3019 3004 3008 3015 3019 3021 3022 3019 3017 3015 3012 3009 3006 3000 2997 2993 2991 2989 2987 2985 2982 2981 2979 2979 2978 2977 2976 2975 2975 2978 2981 2982 2983 2986 2987 2988 2993 2995 2997 2998 3001 3001 3003